Annapolis Naval Academy, MD

6:08 AM EDT on June 25, 2017 (GMT -0400)
Annapolis Naval Academy

Weather History for KNAK - July, 2013

Change the Weather History Date:

Wednesday, July 10, 2013

  Actual Average (KBWI) Record (KBWI)
Temperature  
Mean Temperature 81 °F -  
Max Temperature 88 °F 88 °F 107 °F (1936)
Min Temperature 75 °F 68 °F 55 °F (1961)
Cooling Degree Days 16    
Growing Degree Days 31 (Base 50)    
Moisture  
Dew Point 75 °F    
Average Humidity 84    
Maximum Humidity 94    
Minimum Humidity 67    
Precipitation  
Precipitation 0.24 in - - ()
Sea Level Pressure  
Sea Level Pressure 29.95 in    
Wind  
Wind Speed 5 mph (SSW)    
Max Wind Speed 12 mph    
Max Gust Speed -    
Visibility 10 miles    
Events Rain    
Averages and records for this station are not official NWS values.
T = Trace of Precipitation, MM = Missing Value Source: NWS Daily Summary

Daily Weather History Graph

Daily Weather History Graph

Search for Another Location

Airport or City:

Trip Planner

Search our weather history database for the weather conditions in past years. The results will help you decide how hot, cold, wet, or windy it might be!

Date:

Astronomy

Jul. 10, 2013 Rise Set
Actual Time 5:49 AM EDT 8:33 PM EDT
Civil Twilight 5:17 AM EDT 9:04 PM EDT
Nautical Twilight 4:38 AM EDT 9:43 PM EDT
Astronomical Twilight 3:53 AM EDT 10:28 PM EDT
Moon 8:06 AM EDT (7/10) 9:43 PM EDT (7/10)
Length of Visible Light 15h 46m
Length of Day
14h 43m
Waxing Crescent, 5% of the Moon is Illuminated
Jul 10
Waxing Crescent
Jul 15
First Quarter
Jul 22
Full
Jul 29
Last Quarter
Aug 6
New

Hourly Weather History & Observations

Time (EDT) Temp. Heat Index Dew Point Humidity Pressure Visibility Wind Dir Wind Speed Gust Speed Precip Events Conditions
12:54 AM 79.0 °F - 75.0 °F 88% 30.01 in 9.0 mi South 3.5 mph - N/A   Clear
1:54 AM 78.1 °F - 75.0 °F 90% 29.99 in 9.0 mi South 4.6 mph - N/A   Clear
2:54 AM 78.1 °F - 73.9 °F 87% 29.98 in 10.0 mi South 3.5 mph - N/A   Clear
3:54 AM 78.1 °F - 73.9 °F 87% 29.98 in 10.0 mi Variable 3.5 mph - N/A   Clear
4:54 AM 77.0 °F - 75.0 °F 94% 29.98 in 10.0 mi WSW 5.8 mph - N/A   Mostly Cloudy
5:54 AM 77.0 °F - 75.0 °F 94% 29.99 in 9.0 mi North - - N/A   Mostly Cloudy
6:54 AM 77.0 °F - 75.0 °F 94% 29.99 in 8.0 mi SW 4.6 mph - N/A   Partly Cloudy
7:54 AM 79.0 °F - 75.0 °F 88% 29.98 in 9.0 mi Variable 6.9 mph - N/A   Clear
8:54 AM 80.1 °F 85.1 °F 75.0 °F 85% 29.99 in 9.0 mi Variable 4.6 mph - N/A   Clear
9:54 AM 80.1 °F 85.4 °F 75.9 °F 87% 29.99 in 9.0 mi SSW 5.8 mph - N/A   Overcast
10:54 AM 80.1 °F 85.8 °F 77.0 °F 90% 29.99 in 8.0 mi Variable 4.6 mph - 0.00 in   Mostly Cloudy
11:54 AM 81.0 °F 86.7 °F 75.0 °F 82% 29.99 in 9.0 mi West 5.8 mph - N/A   Mostly Cloudy
12:54 PM 84.9 °F 93.3 °F 75.0 °F 72% 29.98 in 10.0 mi Variable 5.8 mph - N/A   Partly Cloudy
1:54 PM 84.0 °F 91.2 °F 73.9 °F 72% 29.96 in 10.0 mi SSW 5.8 mph - N/A   Scattered Clouds
2:54 PM 84.9 °F 95.3 °F 77.0 °F 77% 29.91 in 10.0 mi South 11.5 mph - N/A   Clear
3:54 PM 84.9 °F 94.1 °F 75.9 °F 74% 29.88 in 10.0 mi South 8.1 mph - N/A   Clear
4:54 PM 87.1 °F 96.3 °F 75.0 °F 67% 29.87 in 10.0 mi SW 8.1 mph - N/A   Clear
5:54 PM 86.0 °F 96.0 °F 75.9 °F 72% 29.89 in 10.0 mi South 11.5 mph - N/A   Clear
6:54 PM 84.0 °F 93.7 °F 77.0 °F 79% 29.89 in 10.0 mi South 5.8 mph - N/A   Partly Cloudy
7:54 PM 84.0 °F 93.7 °F 77.0 °F 79% 29.90 in 10.0 mi South 6.9 mph - N/A   Clear
8:54 PM 77.0 °F - 73.0 °F 88% 29.94 in 10.0 mi Variable 6.9 mph - 0.01 in   Overcast
9:54 PM 75.0 °F - 72.0 °F 90% 29.91 in 9.0 mi Variable 3.5 mph - 0.02 in Rain Light Rain
10:54 PM 75.0 °F - 72.0 °F 90% 29.89 in 10.0 mi Variable 3.5 mph - 0.21 in   Clear
11:54 PM 75.0 °F - 72.0 °F 90% 29.88 in 10.0 mi Variable 5.8 mph - N/A   Clear